This is the latest recevied weather packets stored in our database for station/object W4CAT-13. If no packets are shown the sender has not sent any weather packets the latest 10 day(s).
| Time | Temp. | Humidity | Pressure | Rain* | Wind** | Luminosity | Snow |
|---|---|---|---|---|---|---|---|
| 1777874224 | 12.22° C | 59% | 978 hPa | 0 mm | - | - | - |
| 1777873294 | 12.78° C | 57% | 978.3 hPa | 0 mm | - | - | - |
| 1777872364 | 13.33° C | 56% | 978.3 hPa | 0 mm | - | - | - |
| 1777871434 | 13.33° C | 54% | 978.3 hPa | 0 mm | - | - | - |
| 1777870504 | 13.89° C | 53% | 978.3 hPa | 0 mm | - | - | - |
| 1777869574 | 13.89° C | 51% | 978.3 hPa | 0 mm | - | - | - |
| 1777868644 | 13.89° C | 51% | 978.3 hPa | 0 mm | - | - | - |
| 1777867714 | 13.89° C | 50% | 978.3 hPa | 0 mm | - | - | - |
| 1777866784 | 14.44° C | 50% | 978.3 hPa | 0 mm | - | - | - |
| 1777865854 | 14.44° C | 50% | 978 hPa | 0 mm | - | - | - |
| 1777864924 | 14.44° C | 48% | 978 hPa | 0 mm | - | - | - |
| 1777863994 | 15° C | 47% | 978 hPa | 0 mm | - | - | - |
| 1777863064 | 15.56° C | 44% | 978.7 hPa | 0 mm | - | - | - |
| 1777862134 | 15.56° C | 43% | 978.7 hPa | 0 mm | - | - | - |
| 1777861204 | 15.56° C | 43% | 978.7 hPa | 0 mm | - | - | - |
| 1777860274 | 15.56° C | 43% | 978.7 hPa | 0 mm | - | - | - |
| 1777859344 | 15.56° C | 43% | 978 hPa | 0 mm | - | - | - |
| 1777858415 | 15.56° C | 43% | 978 hPa | 0 mm | - | - | - |
| 1777857484 | 15.56° C | 43% | 978 hPa | 0 mm | - | - | - |
| 1777856554 | 15.56° C | 43% | 978 hPa | 0 mm | - | - | - |
| 1777855654 | 16.11° C | 43% | 977.6 hPa | 0 mm | - | - | - |
| 1777854724 | 16.11° C | 43% | 977.9 hPa | 0 mm | - | - | - |
| 1777853794 | 16.67° C | 42% | 978 hPa | 0 mm | - | - | - |
| 1777852864 | 16.67° C | 40% | 978 hPa | 0 mm | - | - | - |
| 1777851934 | 17.22° C | 39% | 978.3 hPa | 0 mm | - | - | - |
* Rain latest hour (hover to see other rain measurements)
** Current wind speed in m/s (hover to see current wind gust speed)